Flag for U.S.A. Weather past 2 weeks in Detroit, Michigan, U.S.A.

Now
49 °F

Sunny.


Feels Like: 48 °F
Forecast: 35 / 57 °F
Wind: 3 mph from Southeast

Location: Detroit City Airport

Current Time: Apr 1, 2015 at 12:57:24 PM

Latest Report: Apr 1, 2015 at 11:53 AM


Visibility: 8 mi

Pressure: 30.14 "Hg

Humidity: 55%

Dew point: 33 °F

Location of DetroitLocation

Historic Weather in Detroit — Graph

°F

Detroit temperature yesterday

Maximum temperature yesterday: 47 °F (at 5:53 PM)
Minimum temperature yesterday: 34 °F (at 3:04 AM)
Average temperature yesterday: 38 °F

Past Weeks' High & Low Weather Summary

 TemperatureHumidityPressure
High58 °F (Mar 30, 4:53 PM)89% (Mar 25, 10:53 AM)30.40 "Hg (Mar 25, 10:53 AM)
Low18 °F (Mar 27, 11:53 PM)22% (Mar 17, 1:53 PM)29.73 "Hg (Mar 30, 12:53 AM)
Average36 °F55%30.12 "Hg
* Reported Mar 17 11:53 AM — Apr 1 11:53 AM, Detroit, Weather by CustomWeather, © 2015

Note: Actual official high and low records may vary slightly from our data, if they occured in-between our weather recording intervals... More about our weather records

Advertising

Detroit weather history for previous 24 hours

 ConditionsComfort  
Time TempWeatherWind HumidityBarometerVisibility
11:53 AM
Wed, Apr 1
49 °FSunny.3 mph55%30.14 "Hg8 mi
10:53 AM46 °FSunny.3 mph63%30.14 "Hg6 mi
9:53 AM42 °FSunny.No wind73%30.11 "Hg5 mi
8:53 AM38 °FPartly sunny.No wind79%30.10 "Hg4 mi
7:53 AM37 °FPassing clouds.3 mph79%30.08 "Hg4 mi
6:53 AM38 °FMostly cloudy.3 mph79%30.05 "Hg6 mi
5:53 AM37 °FHaze.6 mph79%30.03 "Hg6 mi
4:53 AM39 °FPassing clouds.8 mph76%30.01 "Hg7 mi
3:53 AM39 °FMostly cloudy.8 mph79%30.01 "Hg7 mi
2:53 AM38 °FOvercast.7 mph83%30.01 "Hg6 mi
1:53 AM39 °FPassing clouds.3 mph79%30.00 "Hg6 mi
12:53 AM37 °FClear.6 mph82%29.98 "Hg5 mi
11:53 PM
Tue, Mar 31
36 °FClear.3 mph82%29.99 "Hg6 mi
10:53 PM37 °FClear.5 mph82%30.00 "Hg7 mi
9:53 PM38 °FClear.5 mph76%30.00 "Hg8 mi
8:53 PM40 °FSunny.3 mph65%29.98 "Hg10 mi
7:53 PM42 °FSunny.6 mph55%29.96 "Hg10 mi
6:53 PM47 °FSunny.6 mph44%29.94 "Hg10 mi
5:53 PM47 °FPassing clouds.5 mph52%29.93 "Hg10 mi
4:53 PM46 °FScattered clouds.8 mph54%29.93 "Hg10 mi
3:53 PM43 °FOvercast.7 mph62%29.92 "Hg10 mi
2:53 PM42 °FOvercast.8 mph68%29.91 "Hg10 mi
1:53 PM40 °FOvercast.8 mph77%29.88 "Hg10 mi
12:53 PM38 °FMostly cloudy.10 mph79%29.86 "Hg8 mi
Weather by CustomWeather, © 2015

See weather overviewHow to use our weather pages